| time (UTC) | temp C | wind direction | speed KPH | gust KPH | rain 1hr cm | rain 24hr cm | rain mn cm | humidity % | barometer mb |
| 20260503180529 | 15 | 276 | 0.0 | 9.7 | 0.00 | 0.00 | 0.00 | 76 | 1013.1 |
| 20260503180030 | 15 | 300 | 1.6 | 9.7 | 0.00 | 0.00 | 0.00 | 75 | 1013.2 |
| 20260503175528 | 15 | 209 | 1.6 | 9.7 | 0.00 | 0.00 | 0.00 | 75 | 1013.1 |
| 20260503175031 | 15 | 256 | 3.2 | 9.7 | 0.00 | 0.00 | 0.00 | 75 | 1013.1 |
| 20260503174530 | 15 | 232 | 0.0 | 6.4 | 0.00 | 0.00 | 0.00 | 74 | 1013.0 |
| 20260503174028 | 15 | 277 | 1.6 | 9.7 | 0.00 | 0.00 | 0.00 | 74 | 1013.0 |
| 20260503173526 | 15 | 257 | 1.6 | 14.5 | 0.00 | 0.00 | 0.00 | 73 | 1013.0 |
| 20260503173026 | 15 | 238 | 1.6 | 16.1 | 0.00 | 0.00 | 0.00 | 73 | 1012.9 |
| 20260503172525 | 15 | 258 | 1.6 | 11.3 | 0.00 | 0.00 | 0.00 | 72 | 1012.9 |
| 20260503172025 | 15 | 278 | 3.2 | 12.9 | 0.00 | 0.00 | 0.00 | 71 | 1012.8 |
| 20260503171525 | 16 | 229 | 0.0 | 12.9 | 0.00 | 0.00 | 0.00 | 71 | 1012.8 |
| 20260503171026 | 16 | 184 | 3.2 | 12.9 | 0.00 | 0.00 | 0.00 | 70 | 1012.7 |
| 20260503170524 | 16 | 284 | 3.2 | 12.9 | 0.00 | 0.00 | 0.00 | 70 | 1012.7 |
| 20260503151004 | 12 | 244 | 0.0 | 4.8 | 0.00 | 0.00 | 0.00 | 83 | 1012.4 |
| 20260503150502 | 12 | 217 | 0.0 | 4.8 | 0.00 | 0.00 | 0.00 | 83 | 1012.4 |
| 20260503131053 | 11 | 265 | 0.0 | 4.8 | 0.00 | 0.00 | 0.00 | 86 | 1011.2 |
| 20260503130554 | 11 | 265 | 0.0 | 8.0 | 0.00 | 0.00 | 0.00 | 85 | 1011.1 |
| 20260503110550 | 11 | 298 | 0.0 | 6.4 | 0.00 | 0.00 | 0.00 | 85 | 1011.0 |
| 20260503081541 | 12 | 232 | 0.0 | 4.8 | 0.00 | 0.00 | 0.00 | 84 | 1011.6 |
| 20260503081035 | 12 | 232 | 0.0 | 4.8 | 0.00 | 0.00 | 0.00 | 84 | 1011.6 |
| 20260503080534 | 12 | 239 | 0.0 | 1.6 | 0.00 | 0.00 | 0.00 | 84 | 1011.7 |
| 20260503072534 | 12 | 238 | 0.0 | 4.8 | 0.00 | 0.00 | 0.00 | 84 | 1011.8 |
| 20260503072031 | 12 | 236 | 0.0 | 3.2 | 0.00 | 0.00 | 0.00 | 84 | 1011.8 |
| 20260503071531 | 12 | 236 | 0.0 | 6.4 | 0.00 | 0.00 | 0.00 | 84 | 1011.8 |
| 20260503071030 | 12 | 236 | 1.6 | 6.4 | 0.00 | 0.00 | 0.00 | 84 | 1011.8 |
| 20260503070530 | 12 | 244 | 0.0 | 3.2 | 0.00 | 0.00 | 0.00 | 84 | 1011.8 |
| 20260503055027 | 12 | 287 | 0.0 | 4.8 | 0.00 | 0.00 | 0.00 | 84 | 1012.3 |
| 20260503054540 | 12 | 269 | 0.0 | 3.2 | 0.00 | 0.00 | 0.00 | 84 | 1012.4 |
| 20260503054027 | 12 | 271 | 0.0 | 8.0 | 0.00 | 0.00 | 0.00 | 84 | 1012.4 |
| 20260503053527 | 12 | 271 | 0.0 | 8.0 | 0.00 | 0.00 | 0.00 | 84 | 1012.3 |
| 20260503053030 | 12 | 209 | 0.0 | 3.2 | 0.00 | 0.00 | 0.00 | 84 | 1012.3 |
| 20260503052527 | 12 | 208 | 0.0 | 8.0 | 0.00 | 0.00 | 0.00 | 84 | 1012.3 |
| 20260503052026 | 12 | 207 | 0.0 | 8.0 | 0.00 | 0.00 | 0.00 | 84 | 1012.4 |
| 20260503051527 | 12 | 173 | 0.0 | 12.9 | 0.00 | 0.00 | 0.00 | 84 | 1012.3 |
| 20260503051026 | 12 | 198 | 0.0 | 8.0 | 0.00 | 0.00 | 0.00 | 84 | 1012.4 |
| 20260503050529 | 12 | 276 | 1.6 | 6.4 | 0.00 | 0.00 | 0.00 | 83 | 1012.2 |
| 20260503050027 | 12 | 221 | 0.0 | 4.8 | 0.00 | 0.00 | 0.00 | 84 | 1012.2 |
| 20260503045526 | 12 | 177 | 0.0 | 4.8 | 0.00 | 0.00 | 0.00 | 84 | 1012.2 |
| 20260503045028 | 12 | 276 | 0.0 | 3.2 | 0.00 | 0.00 | 0.00 | 84 | 1012.1 |
| 20260503044536 | 12 | 282 | 0.0 | 6.4 | 0.00 | 0.00 | 0.00 | 84 | 1012.2 |
| 20260503044025 | 12 | 286 | 1.6 | 6.4 | 0.00 | 0.00 | 0.00 | 84 | 1012.1 |
| 20260503043525 | 12 | 269 | 0.0 | 4.8 | 0.00 | 0.00 | 0.00 | 84 | 1012.1 |
| 20260503043025 | 12 | 265 | 0.0 | 6.4 | 0.00 | 0.00 | 0.00 | 84 | 1012.1 |
| 20260503042525 | 12 | 269 | 1.6 | 6.4 | 0.00 | 0.00 | 0.00 | 84 | 1012.0 |
| 20260503042025 | 12 | 218 | 0.0 | 6.4 | 0.00 | 0.00 | 0.00 | 84 | 1012.0 |
| 20260503041525 | 12 | 182 | 1.6 | 8.0 | 0.00 | 0.00 | 0.00 | 84 | 1011.9 |
| 20260503041025 | 12 | 269 | 0.0 | 8.0 | 0.00 | 0.00 | 0.00 | 84 | 1011.9 |
| 20260503040528 | 12 | 289 | 1.6 | 8.0 | 0.00 | 0.00 | 0.00 | 83 | 1011.9 |
| 20260503040024 | 12 | 284 | 0.0 | 6.4 | 0.00 | 0.00 | 0.00 | 84 | 1011.9 |
| 20260503035524 | 12 | 285 | 0.0 | 11.3 | 0.00 | 0.00 | 0.00 | 83 | 1011.8 |
| 20260503035024 | 12 | 288 | 0.0 | 4.8 | 0.00 | 0.00 | 0.00 | 83 | 1011.8 |
| 20260503034524 | 12 | 299 | 1.6 | 4.8 | 0.00 | 0.00 | 0.00 | 83 | 1011.8 |
| 20260503034023 | 12 | 327 | 0.0 | 6.4 | 0.00 | 0.00 | 0.00 | 83 | 1011.7 |
| 20260503033523 | 12 | 263 | 0.0 | 6.4 | 0.00 | 0.00 | 0.00 | 83 | 1011.6 |
| 20260503033023 | 12 | 252 | 1.6 | 6.4 | 0.00 | 0.00 | 0.00 | 83 | 1011.6 |
| 20260503032523 | 12 | 267 | 1.6 | 6.4 | 0.00 | 0.00 | 0.00 | 83 | 1011.5 |
| 20260503032023 | 12 | 273 | 0.0 | 6.4 | 0.00 | 0.00 | 0.00 | 83 | 1011.4 |
| 20260503031523 | 12 | 173 | 0.0 | 4.8 | 0.00 | 0.00 | 0.00 | 83 | 1011.4 |
| 20260503031023 | 12 | 165 | 0.0 | 6.4 | 0.00 | 0.00 | 0.00 | 83 | 1011.3 |
| 20260503030522 | 12 | 286 | 0.0 | 6.4 | 0.00 | 0.00 | 0.00 | 83 | 1011.3 |
| 20260503030023 | 12 | 262 | 1.6 | 8.0 | 0.00 | 0.00 | 0.00 | 82 | 1011.2 |
| 20260503025522 | 13 | 252 | 3.2 | 9.7 | 0.00 | 0.00 | 0.00 | 82 | 1011.1 |
| 20260503025022 | 13 | 210 | 1.6 | 11.3 | 0.00 | 0.00 | 0.00 | 82 | 1011.1 |
| 20260503024522 | 13 | 286 | 3.2 | 11.3 | 0.00 | 0.00 | 0.00 | 81 | 1011.1 |
| 20260503024022 | 13 | 275 | 1.6 | 8.0 | 0.00 | 0.00 | 0.00 | 81 | 1011.1 |
| 20260503023524 | 13 | 248 | 0.0 | 6.4 | 0.00 | 0.00 | 0.00 | 81 | 1011.0 |
| 20260503023021 | 13 | 196 | 1.6 | 4.8 | 0.00 | 0.00 | 0.00 | 80 | 1011.1 |
| 20260503022521 | 13 | 275 | 0.0 | 3.2 | 0.00 | 0.00 | 0.00 | 80 | 1011.1 |
| 20260503021523 | 13 | 283 | 0.0 | 6.4 | 0.00 | 0.00 | 0.00 | 79 | 1011.1 |
| 20260503021021 | 13 | 280 | 1.6 | 6.4 | 0.00 | 0.00 | 0.00 | 79 | 1011.1 |
| 20260503020521 | 13 | 241 | 0.0 | 8.0 | 0.00 | 0.00 | 0.00 | 78 | 1011.0 |
| 20260503020021 | 14 | 185 | 3.2 | 9.7 | 0.00 | 0.00 | 0.00 | 78 | 1011.0 |
| 20260503015522 | 14 | 284 | 0.0 | 11.3 | 0.00 | 0.00 | 0.00 | 78 | 1011.1 |
| 20260503015020 | 14 | 271 | 3.2 | 11.3 | 0.00 | 0.00 | 0.00 | 77 | 1011.0 |
| 20260503014520 | 14 | 208 | 0.0 | 4.8 | 0.00 | 0.00 | 0.00 | 77 | 1011.0 |
| 20260503014020 | 14 | 259 | 0.0 | 11.3 | 0.00 | 0.00 | 0.00 | 77 | 1011.0 |
| 20260503013519 | 15 | 259 | 3.2 | 11.3 | 0.00 | 0.00 | 0.00 | 76 | 1011.0 |
| 20260503013033 | 15 | 248 | 1.6 | 8.0 | 0.00 | 0.00 | 0.00 | 75 | 1011.0 |
| 20260503012519 | 15 | 291 | 3.2 | 8.0 | 0.00 | 0.00 | 0.00 | 74 | 1011.1 |
| 20260503012019 | 15 | 309 | 1.6 | 6.4 | 0.00 | 0.00 | 0.00 | 73 | 1011.1 |
| 20260503011518 | 15 | 238 | 0.0 | 8.0 | 0.00 | 0.00 | 0.00 | 73 | 1011.2 |
| 20260503011018 | 15 | 144 | 1.6 | 8.0 | 0.00 | 0.00 | 0.00 | 71 | 1011.2 |
| 20260503010520 | 15 | 277 | 1.6 | 12.9 | 0.00 | 0.00 | 0.00 | 72 | 1011.2 |
| 20260503010018 | 15 | 281 | 1.6 | 12.9 | 0.00 | 0.00 | 0.00 | 72 | 1011.1 |
| 20260503005518 | 15 | 286 | 1.6 | 8.0 | 0.00 | 0.00 | 0.00 | 72 | 1011.2 |
| 20260503005018 | 15 | 268 | 1.6 | 8.0 | 0.00 | 0.00 | 0.00 | 71 | 1011.2 |
| 20260503004517 | 16 | 196 | 1.6 | 8.0 | 0.00 | 0.00 | 0.00 | 70 | 1011.2 |
| 20260503004021 | 16 | 240 | 3.2 | 12.9 | 0.00 | 0.00 | 0.00 | 70 | 1011.2 |
| 20260503003516 | 16 | 216 | 1.6 | 12.9 | 0.00 | 0.00 | 0.00 | 71 | 1011.2 |
| 20260503003016 | 16 | 255 | 1.6 | 16.1 | 0.00 | 0.00 | 0.00 | 70 | 1011.2 |
| 20260503002516 | 16 | 318 | 4.8 | 16.1 | 0.00 | 0.00 | 0.00 | 69 | 1011.3 |
| 20260503002016 | 16 | 281 | 1.6 | 16.1 | 0.00 | 0.00 | 0.00 | 70 | 1011.2 |
| 20260503001516 | 16 | 296 | 4.8 | 16.1 | 0.00 | 0.00 | 0.00 | 69 | 1011.2 |
| 20260503001016 | 16 | 277 | 3.2 | 14.5 | 0.00 | 0.00 | 0.00 | 68 | 1011.3 |
| 20260503000518 | 17 | 301 | 6.4 | 14.5 | 0.00 | 0.00 | 0.00 | 68 | 1011.3 |
| 20260503000016 | 17 | 288 | 3.2 | 12.9 | 0.00 | 0.00 | 0.00 | 68 | 1011.3 |
| 20260502235514 | 17 | 289 | 4.8 | 17.7 | 0.00 | 0.00 | 0.00 | 67 | 1011.4 |
| 20260502235015 | 17 | 309 | 3.2 | 17.7 | 0.00 | 0.00 | 0.00 | 67 | 1011.3 |
| 20260502234514 | 17 | 260 | 1.6 | 11.3 | 0.00 | 0.00 | 0.00 | 67 | 1011.4 |
| 20260502234014 | 17 | 269 | 3.2 | 11.3 | 0.00 | 0.00 | 0.00 | 66 | 1011.4 |
| 20260502233512 | 17 | 295 | 3.2 | 11.3 | 0.00 | 0.00 | 0.00 | 65 | 1011.4 |
| 20260502233027 | 17 | 315 | 3.2 | 11.3 | 0.00 | 0.00 | 0.00 | 66 | 1011.5 |
| 20260502232512 | 17 | 296 | 3.2 | 14.5 | 0.00 | 0.00 | 0.00 | 65 | 1011.6 |
| 20260502232012 | 17 | 338 | 4.8 | 14.5 | 0.00 | 0.00 | 0.00 | 64 | 1011.6 |
| 20260502231512 | 17 | 268 | 3.2 | 12.9 | 0.00 | 0.00 | 0.00 | 65 | 1011.6 |
| 20260502231012 | 17 | 281 | 4.8 | 16.1 | 0.00 | 0.00 | 0.00 | 65 | 1011.7 |
| 20260502230512 | 17 | 332 | 6.4 | 16.1 | 0.00 | 0.00 | 0.00 | 66 | 1011.8 |
| 20260502230012 | 17 | 259 | 1.6 | 14.5 | 0.00 | 0.00 | 0.00 | 66 | 1011.8 |
| 20260502225511 | 18 | 313 | 6.4 | 14.5 | 0.00 | 0.00 | 0.00 | 64 | 1011.9 |
| 20260502225011 | 18 | 178 | 3.2 | 16.1 | 0.00 | 0.00 | 0.00 | 64 | 1012.0 |
| 20260502224511 | 18 | 310 | 4.8 | 16.1 | 0.00 | 0.00 | 0.00 | 64 | 1011.9 |
| 20260502224013 | 18 | 231 | 3.2 | 12.9 | 0.00 | 0.00 | 0.00 | 65 | 1012.1 |
| 20260502223510 | 18 | 333 | 4.8 | 17.7 | 0.00 | 0.00 | 0.00 | 63 | 1012.2 |
| 20260502223010 | 19 | 298 | 6.4 | 17.7 | 0.00 | 0.00 | 0.00 | 63 | 1012.1 |
| 20260502222510 | 19 | 316 | 1.6 | 11.3 | 0.00 | 0.00 | 0.00 | 64 | 1012.2 |
| 20260502222010 | 19 | 327 | 1.6 | 9.7 | 0.00 | 0.00 | 0.00 | 64 | 1012.3 |
| 20260502221514 | 18 | 269 | 1.6 | 6.4 | 0.00 | 0.00 | 0.00 | 64 | 1012.4 |
| 20260502221008 | 18 | 281 | 1.6 | 8.0 | 0.00 | 0.00 | 0.00 | 66 | 1012.4 |
| 20260502220506 | 18 | 238 | 0.0 | 12.9 | 0.00 | 0.00 | 0.00 | 66 | 1012.3 |
| 20260502220006 | 18 | 178 | 3.2 | 12.9 | 0.00 | 0.00 | 0.00 | 65 | 1012.5 |
| 20260502215508 | 18 | 205 | 3.2 | 11.3 | 0.00 | 0.00 | 0.00 | 65 | 1012.5 |
| 20260502215005 | 18 | 307 | 1.6 | 14.5 | 0.00 | 0.00 | 0.00 | 66 | 1012.6 |
| 20260502214504 | 18 | 265 | 3.2 | 14.5 | 0.00 | 0.00 | 0.00 | 65 | 1012.7 |
| 20260502214004 | 18 | 119 | 3.2 | 12.9 | 0.00 | 0.00 | 0.00 | 65 | 1012.6 |
| 20260502213504 | 18 | 336 | 3.2 | 14.5 | 0.00 | 0.00 | 0.00 | 65 | 1012.7 |
| 20260502213002 | 18 | 267 | 0.0 | 9.7 | 0.00 | 0.00 | 0.00 | 68 | 1012.5 |
| 20260502212502 | 17 | 254 | 3.2 | 9.7 | 0.00 | 0.00 | 0.00 | 67 | 1012.5 |
| 20260502212004 | 17 | 244 | 0.0 | 9.7 | 0.00 | 0.00 | 0.00 | 69 | 1012.6 |
| 20260502211603 | 17 | 213 | 0.0 | 9.7 | 0.00 | 0.00 | 0.00 | 69 | 1012.7 |
| 20260502211100 | 17 | 113 | 3.2 | 14.5 | 0.00 | 0.00 | 0.00 | 69 | 1012.8 |
| 20260502210558 | 17 | 269 | 3.2 | 14.5 | 0.00 | 0.00 | 0.00 | 70 | 1012.9 |
| 20260502210108 | 17 | 272 | 4.8 | 14.5 | 0.00 | 0.00 | 0.00 | 71 | 1013.0 |
| 20260502205558 | 16 | 146 | 4.8 | 14.5 | 0.00 | 0.00 | 0.00 | 71 | 1013.1 |
| 20260502205101 | 16 | 209 | 3.2 | 11.3 | 0.00 | 0.00 | 0.00 | 72 | 1013.0 |
| 20260502204559 | 16 | 133 | 4.8 | 12.9 | 0.00 | 0.00 | 0.00 | 72 | 1013.2 |
| 20260502204058 | 16 | 234 | 4.8 | 12.9 | 0.00 | 0.00 | 0.00 | 71 | 1013.2 |
| 20260502203558 | 17 | 263 | 3.2 | 11.3 | 0.00 | 0.00 | 0.00 | 72 | 1013.3 |
| 20260502203057 | 17 | 271 | 0.0 | 16.1 | 0.00 | 0.00 | 0.00 | 72 | 1013.3 |
| 20260502202557 | 17 | 242 | 6.4 | 16.1 | 0.00 | 0.00 | 0.00 | 71 | 1013.3 |
| 20260502202057 | 17 | 328 | 3.2 | 16.1 | 0.00 | 0.00 | 0.00 | 72 | 1013.4 |
| 20260502201557 | 17 | 260 | 4.8 | 11.3 | 0.00 | 0.00 | 0.00 | 71 | 1013.4 |
| 20260502201057 | 17 | 336 | 1.6 | 12.9 | 0.00 | 0.00 | 0.00 | 74 | 1013.4 |
| 20260502200554 | 16 | 329 | 3.2 | 14.5 | 0.00 | 0.00 | 0.00 | 73 | 1013.5 |
| 20260502200054 | 16 | 246 | 6.4 | 14.5 | 0.00 | 0.00 | 0.00 | 73 | 1013.5 |
| 20260502195553 | 16 | 212 | 3.2 | 11.3 | 0.00 | 0.00 | 0.00 | 74 | 1013.5 |
| 20260502195051 | 16 | 338 | 1.6 | 11.3 | 0.00 | 0.00 | 0.00 | 75 | 1013.5 |
| 20260502194557 | 16 | 148 | 3.2 | 11.3 | 0.00 | 0.00 | 0.00 | 76 | 1013.5 |
| 20260502194050 | 15 | 229 | 3.2 | 11.3 | 0.00 | 0.00 | 0.00 | 77 | 1013.5 |
| 20260502193550 | 15 | 230 | 4.8 | 12.9 | 0.00 | 0.00 | 0.00 | 76 | 1013.6 |
| 20260502193050 | 16 | 232 | 3.2 | 12.9 | 0.00 | 0.00 | 0.00 | 76 | 1013.6 |
| 20260502192549 | 16 | 275 | 1.6 | 11.3 | 0.00 | 0.00 | 0.00 | 77 | 1013.6 |
| 20260502192048 | 16 | 275 | 1.6 | 19.3 | 0.00 | 0.00 | 0.00 | 77 | 1013.5 |
| 20260502191550 | 16 | 58 | 3.2 | 20.9 | 0.00 | 0.00 | 0.00 | 78 | 1013.5 |
| 20260502191048 | 16 | 336 | 3.2 | 9.7 | 0.00 | 0.00 | 0.00 | 77 | 1013.6 |
| 20260502190547 | 15 | 329 | 3.2 | 14.5 | 0.00 | 0.00 | 0.00 | 79 | 1013.6 |
| 20260502190050 | 15 | 304 | 1.6 | 14.5 | 0.00 | 0.00 | 0.00 | 79 | 1013.6 |
| 20260502185545 | 15 | 271 | 1.6 | 14.5 | 0.00 | 0.00 | 0.00 | 79 | 1013.6 |
| 20260502185044 | 15 | 278 | 0.0 | 11.3 | 0.00 | 0.00 | 0.00 | 79 | 1013.7 |
| 20260502184550 | 15 | 292 | 3.2 | 12.9 | 0.00 | 0.00 | 0.00 | 79 | 1013.7 |
| 20260502184043 | 15 | 134 | 1.6 | 12.9 | 0.00 | 0.00 | 0.00 | 80 | 1013.6 |
| 20260502183542 | 15 | 275 | 3.2 | 9.7 | 0.00 | 0.00 | 0.00 | 80 | 1013.6 |
| 20260502183042 | 15 | 112 | 3.2 | 14.5 | 0.00 | 0.00 | 0.00 | 80 | 1013.6 |
| 20260502182542 | 15 | 183 | 3.2 | 14.5 | 0.00 | 0.00 | 0.00 | 80 | 1013.6 |
| 20260502182041 | 15 | 267 | 3.2 | 9.7 | 0.00 | 0.00 | 0.00 | 80 | 1013.6 |
| 20260502181040 | 15 | 276 | 0.0 | 6.4 | 0.00 | 0.00 | 0.00 | 82 | 1013.6 |